Date String (YYYY-MM-DD hh:mm:ss) UTC,Instrument flags,Ambient pressure (hPa),Sample flow (lpm),Bypass flow (lpm),Sample temperature (°C),Ambient temperature (°C),ASC tube jacket temperature (°C),LED temperature (°C),Box temperature (°C),Sample RH (%),Span deviation,Mass concentration (μg/m³),Mass concentration (μg/m³),Mass concentration (μg/m³)
DateTimeUTC,F1_M11,P_M11,Q1_M11,Q2_M11,T1_M11,T2_M11,T3_M11,T4_M11,T5_M11,U1_M11,ZSPAN_M11,X0_M11,X2_M11,X1_M11
2023-01-26 09:00:00,,0829.8,5.00,0.00,22.0,20.5,00.0,30.9,23.6,05.0,0000.0,0001.28,0000.83,0000.73
2023-01-26 09:01:00,,0829.8,4.99,0.00,22.0,20.3,00.0,30.9,23.5,05.0,0000.0,0001.37,0000.84,0000.74
2023-01-26 09:02:00,,0829.8,5.00,0.00,21.9,20.2,00.0,30.9,23.4,05.1,0000.0,0001.36,0000.84,0000.76
2023-01-26 09:03:00,,0829.8,5.00,0.00,21.9,20.5,00.0,30.8,23.4,05.1,0000.0,0001.37,0000.86,0000.78
2023-01-26 09:04:00,,0829.7,4.99,0.00,22.0,21.5,00.0,30.8,23.7,05.1,0000.0,0001.41,0000.87,0000.78
2023-01-26 09:05:00,,0829.7,5.01,0.00,22.1,22.4,00.0,30.8,23.9,05.1,0000.0,0001.44,0000.89,0000.79
2023-01-26 09:06:00,,0829.7,5.01,0.00,22.2,22.7,00.0,30.9,24.1,05.1,0000.0,0001.44,0000.90,0000.80
2023-01-26 09:07:00,,0829.7,4.97,0.00,22.2,22.0,00.0,30.9,24.0,05.1,0000.0,0001.42,0000.89,0000.81
2023-01-26 09:08:00,,0829.7,5.00,0.00,22.2,21.4,00.0,30.9,23.9,05.0,0000.0,0001.39,0000.88,0000.81
2023-01-26 09:09:00,,0829.8,4.99,0.00,22.1,21.0,00.0,30.9,23.7,05.0,0000.0,0001.39,0000.88,0000.81
2023-01-26 09:10:00,,0829.8,5.00,0.00,22.0,20.7,00.0,30.9,23.6,05.0,0000.0,0001.37,0000.86,0000.80
2023-01-26 09:11:00,,0829.8,5.00,0.00,22.0,20.5,00.0,30.9,23.5,05.1,0000.0,0001.29,0000.86,0000.80
2023-01-26 09:12:00,,0829.8,5.01,0.00,21.9,20.3,00.0,30.9,23.4,05.1,0000.0,0001.17,0000.86,0000.79
2023-01-26 09:13:00,,0829.8,5.00,0.00,21.9,20.2,00.0,30.8,23.3,05.1,0000.0,0001.17,0000.87,0000.79
2023-01-26 09:14:00,,0829.8,4.99,0.00,21.9,21.0,00.0,30.8,23.5,05.1,0000.0,0001.16,0000.86,0000.79
2023-01-26 09:15:00,,0829.8,5.00,0.00,22.0,22.0,00.0,30.8,23.8,05.1,0000.0,0001.15,0000.86,0000.79
2023-01-26 09:16:00,,0829.8,5.01,0.00,22.1,22.8,00.0,30.8,24.0,05.0,0000.0,0001.16,0000.86,0000.79
2023-01-26 09:17:00,,0829.8,4.99,0.00,22.2,22.6,00.0,30.8,24.1,04.9,0000.0,0001.14,0000.85,0000.78
2023-01-26 09:18:00,,0829.7,4.99,0.00,22.2,21.9,00.0,30.9,24.0,04.9,0000.0,0001.13,0000.85,0000.78
2023-01-26 09:19:00,,0829.7,4.99,0.00,22.2,21.3,00.0,30.9,23.9,05.0,0000.0,0001.18,0000.86,0000.77
2023-01-26 09:20:00,,0829.6,5.02,0.00,22.1,20.9,00.0,30.9,23.8,05.0,0000.0,0001.19,0000.86,0000.76
2023-01-26 09:21:00,,0829.7,5.00,0.00,22.0,20.6,00.0,30.9,23.6,05.1,0000.0,0001.21,0000.87,0000.76
2023-01-26 09:22:00,,0829.7,5.00,0.00,22.0,20.4,00.0,30.9,23.5,05.0,0000.0,0001.21,0000.87,0000.77
2023-01-26 09:23:00,,0829.7,4.99,0.00,21.9,20.3,00.0,30.8,23.4,05.1,0000.0,0001.19,0000.86,0000.77
2023-01-26 09:24:00,,0829.7,4.99,0.00,21.9,20.4,00.0,30.8,23.4,05.1,0000.0,0001.17,0000.85,0000.76
2023-01-26 09:25:00,,0829.7,5.00,0.00,21.9,21.3,00.0,30.8,23.6,05.0,0000.0,0001.19,0000.85,0000.75
2023-01-26 09:26:00,,0829.6,5.00,0.00,22.0,22.2,00.0,30.8,23.9,05.0,0000.0,0001.17,0000.84,0000.74
2023-01-26 09:27:00,,0829.7,5.00,0.00,22.2,22.9,00.0,30.8,24.1,05.0,0000.0,0001.14,0000.82,0000.74
2023-01-26 09:28:00,,0829.7,4.99,0.00,22.2,22.4,00.0,30.9,24.1,05.0,0000.0,0001.17,0000.84,0000.74
2023-01-26 09:29:00,,0829.7,5.00,0.00,22.2,21.8,00.0,30.9,24.0,05.0,0000.0,0001.26,0000.87,0000.73
2023-01-26 09:30:00,,0829.5,5.00,0.00,22.1,21.2,00.0,30.9,23.8,05.0,0000.0,0001.22,0000.85,0000.73
2023-01-26 09:31:00,,0829.6,5.00,0.00,22.1,20.8,00.0,30.9,23.7,05.0,0000.0,0001.23,0000.85,0000.74
2023-01-26 09:32:00,,0829.5,4.99,0.00,22.0,20.5,00.0,30.9,23.6,05.0,0000.0,0001.28,0000.87,0000.75
2023-01-26 09:33:00,,0829.6,4.98,0.00,22.0,20.3,00.0,30.9,23.4,05.1,0000.0,0001.26,0000.86,0000.74
2023-01-26 09:34:00,,0829.6,5.00,0.00,21.9,20.1,00.0,30.8,23.4,05.1,0000.0,0001.29,0000.87,0000.74
2023-01-26 09:35:00,,0829.6,5.00,0.00,21.9,20.5,00.0,30.8,23.4,05.1,0000.0,0001.34,0000.89,0000.76
2023-01-26 09:36:00,,0829.5,5.02,0.00,22.0,21.6,00.0,30.8,23.7,05.1,0000.0,0001.30,0000.88,0000.76
2023-01-26 09:37:00,,0829.5,5.01,0.00,22.1,22.5,00.0,30.8,23.9,05.1,0000.0,0001.31,0000.89,0000.77
2023-01-26 09:38:00,,0829.5,4.99,0.00,22.2,22.8,00.0,30.8,24.1,05.1,0000.0,0001.34,0000.92,0000.78
2023-01-26 09:39:00,,0829.6,4.98,0.00,22.2,22.1,00.0,30.9,24.0,05.1,0000.0,0001.34,0000.93,0000.79
2023-01-26 09:40:00,,0829.5,5.00,0.00,22.1,21.5,00.0,30.9,23.9,05.1,0000.0,0001.32,0000.92,0000.80
2023-01-26 09:41:00,,0829.5,4.99,0.00,22.1,21.1,00.0,30.9,23.7,05.1,0000.0,0001.55,0000.96,0000.81
2023-01-26 09:42:00,,0829.6,5.00,0.00,22.0,20.7,00.0,30.9,23.6,05.1,0000.0,0001.63,0000.96,0000.81
2023-01-26 09:43:00,,0829.6,5.02,0.00,22.0,20.5,00.0,30.9,23.5,05.1,0000.0,0001.57,0000.94,0000.82
2023-01-26 09:44:00,,0829.5,5.00,0.00,21.9,20.2,00.0,30.8,23.3,05.1,0000.0,0001.56,0000.94,0000.82
2023-01-26 09:45:00,,0829.6,4.97,0.00,21.9,20.5,00.0,30.8,23.4,05.1,0000.0,0001.53,0000.94,0000.83
2023-01-26 09:46:00,,0829.6,5.01,0.00,21.9,21.5,00.0,30.8,23.6,05.1,0000.0,0001.50,0000.93,0000.83
2023-01-26 09:47:00,,0829.5,5.00,0.00,22.0,22.4,00.0,30.8,23.9,05.1,0000.0,0001.51,0000.94,0000.84
2023-01-26 09:48:00,,0829.6,5.01,0.00,22.2,22.9,00.0,30.8,24.1,05.1,0000.0,0001.52,0000.94,0000.83
2023-01-26 09:49:00,,0829.5,4.99,0.00,22.2,22.2,00.0,30.9,24.0,05.1,0000.0,0001.55,0000.93,0000.83
2023-01-26 09:50:00,,0829.5,5.02,0.00,22.2,21.6,00.0,30.9,23.9,05.2,0000.0,0001.64,0000.92,0000.83
2023-01-26 09:51:00,,0829.5,5.00,0.00,22.1,21.0,00.0,30.9,23.7,05.1,0000.0,0001.63,0000.92,0000.83
2023-01-26 09:52:00,,0829.6,4.99,0.00,22.0,20.5,00.0,30.9,23.5,05.1,0000.0,0001.44,0000.90,0000.83
2023-01-26 09:53:00,,0829.6,4.99,0.00,22.0,20.3,00.0,30.9,23.4,05.1,0000.0,0001.32,0000.90,0000.83
2023-01-26 09:54:00,,0829.6,5.01,0.00,21.9,20.1,00.0,30.8,23.3,05.2,0000.0,0001.31,0000.89,0000.83
2023-01-26 09:55:00,,0829.6,5.00,0.00,21.9,20.3,00.0,30.8,23.3,05.1,0000.0,0001.34,0000.90,0000.83
2023-01-26 09:56:00,,0829.6,5.00,0.00,21.9,21.3,00.0,30.8,23.6,05.1,0000.0,0001.44,0000.93,0000.83
2023-01-26 09:57:00,,0829.6,4.99,0.00,22.0,22.2,00.0,30.8,23.9,05.1,0000.0,0001.50,0000.96,0000.84
2023-01-26 09:58:00,,0829.6,5.00,0.00,22.1,22.8,00.0,30.8,24.1,05.1,0000.0,0001.49,0000.95,0000.84
2023-01-26 09:59:00,,0829.6,4.98,0.00,22.2,22.3,00.0,30.9,24.0,05.0,0000.0,0001.51,0000.97,0000.84
